Overview Statistics Trail Chart Weather Telemetry Raw packets
 

This is the latest recevied weather packets stored in our database for station/object K0FJ-1. If no packets are shown the sender has not sent any weather packets the latest 10 day(s).

<< 74 75 76 77 78 79 80 >>
Time Temp. Humidity Pressure Rain* Wind** Luminosity Snow
1788161403 21.67° C 79% 1018 hPa 0.25 mm - - -
1788161103 21.67° C 79% 1017.7 hPa 0.51 mm - - -
1788160803 21.67° C 80% 1017.8 hPa 0.51 mm - - -
1788160503 21.67° C 80% 1017.8 hPa 0.76 mm - - -
1788160203 21.67° C 80% 1017.4 hPa 0.76 mm - - -
1788159903 21.67° C 80% 1017.3 hPa 0.76 mm - - -
1788159603 21.67° C 80% 1017.3 hPa 0.76 mm - - -
1788159303 21.67° C 82% 1017 hPa 0.76 mm - - -
1788159003 21.11° C 82% 1016.5 hPa 1.02 mm - - -
1788158703 21.67° C 81% 1016.5 hPa 1.02 mm - - -
1788158403 21.67° C 81% 1017.1 hPa 1.02 mm - - -
1788158103 21.67° C 80% 1017.5 hPa 0.76 mm - - -
1788157803 21.67° C 79% 1017.3 hPa 0.76 mm - - -
1788157504 21.67° C 78% 1017.3 hPa 0.51 mm - - -
1788157203 22.22° C 78% 1017.7 hPa 0.51 mm - - -
1788156903 21.67° C 75% 1017.7 hPa 0.25 mm - - -
1788156603 21.67° C 73% 1017.6 hPa 0.25 mm - - -
1788156303 22.22° C 74% 1017.9 hPa 0.25 mm - - -
1788156003 22.78° C 71% 1018.4 hPa 0.25 mm - - -
1788155703 23.33° C 66% 1018.2 hPa 0.25 mm - - -
1788155403 25° C 64% 1018 hPa 0 mm - - -
1788155103 25.56° C 60% 1017.4 hPa 0 mm - - -
1788154803 25.56° C 56% 1017 hPa 0 mm - - -
1788154503 25.56° C 56% 1017 hPa 0 mm - - -
1788154203 25.56° C 56% 1016.9 hPa 0 mm - - -

* Rain latest hour (hover to see other rain measurements)
** Current wind speed in m/s (hover to see current wind gust speed)